Hovedside
METAR-TAF:

METAR-TAF

Lufthavner :

Mora, Sverige

Mora–Siljan

breddegrad: 60-57-31N, lengdegrad: 14-30-40E, høyde over havet: 193 m

Gjeldene værobservasjon

Denne rapporten ble laget for 1 time og 13 minutter siden, klokken 09:50 UTC
Vind 4 kt fra Sør, skiftende mellom Sørøst og Vest-sørvest
Temperatur 5°C
Luftfuktighet 48%
Trykk 1007 hPa
Sikt 10 km eller mer

METAR: ESKM 270950Z AUTO 19004KT 140V240 9999 FEW040/// 05/M05 Q1007

Tid: 13:03 (11:03 UTC)


TAF: fraværende

Værobservasjoner og værvarsel for over 4000 flyplasser (METAR- og TAF-rapporter).

Tilgjengelige stasjoner er representert av de røde og gule prikkene på kartet.

Hold musepekeren over prikken for å se navnet på stasjonen.

Klikk så for å se værobservasjoner og -varsler.

For å forandre kartet kan du klikke på den grønne knappen med svart kryss for å zoome inn, på den grønne knappen med strek for å zoome ut, eller på de grønne pilene for å se tilstøtende kart.


METAR-TAF: